Flag for U.S.A. Weather past 2 weeks in Rockford, Illinois, U.S.A.

Now
54 °F

Clear.


Feels Like: 54 °F
Forecast: 51 / 71 °F
Wind: 3 mph from East

Location: Greater Rockford Airport

Current Time: Sep 18, 2014 at 11:48:53 PM

Latest Report: Sep 18, 2014 at 10:54 PM


Visibility: 10 mi

Pressure: 30.18 "Hg

Humidity: 90%

Dew point: 51 °F

Location of RockfordLocation

Historic Weather in Rockford — Graph

°F

Rockford temperature yesterday

Maximum temperature yesterday: 71 °F (at 3:54 PM)
Minimum temperature yesterday: 42 °F (at 5:54 AM)
Average temperature yesterday: 56 °F

Past Weeks' High & Low Weather Summary

 TemperatureHumidityPressure
High83 °F (Sep 4, 3:54 PM)96% (Sep 7, 6:54 AM)30.42 "Hg (Sep 7, 6:54 AM)
Low39 °F (Sep 13, 2:54 AM)37% (Sep 7, 2:54 PM)29.51 "Hg (Sep 10, 8:54 AM)
Average60 °F75%30.11 "Hg
* Reported Sep 3 10:54 PM — Sep 18 10:54 PM, Rockford, Weather by CustomWeather, © 2014

Note: Actual official high and low records may vary slightly from our data, if they occured in-between our weather recording intervals... More about our weather records

Advertising

Rockford weather history for previous 24 hours

 ConditionsComfort  
Time TempWeatherWind HumidityBarometerVisibility
10:54 PM
Sep 18
54 °FClear.3 mph90%30.18 "Hg10 mi
9:54 PM56 °FClear.10 mph87%30.16 "Hg10 mi
8:54 PM59 °FPassing clouds.12 mph81%30.15 "Hg10 mi
7:54 PM61 °FPassing clouds.9 mph78%30.14 "Hg10 mi
6:54 PM64 °FScattered clouds.7 mph70%30.12 "Hg10 mi
5:54 PM68 °FPassing clouds.9 mph57%30.11 "Hg10 mi
4:54 PM70 °FScattered clouds.10 mph53%30.11 "Hg10 mi
3:54 PM71 °FScattered clouds.8 mph53%30.12 "Hg10 mi
2:54 PM69 °FPassing clouds.9 mph57%30.13 "Hg10 mi
1:54 PM68 °FPassing clouds.N/A61%30.14 "Hg10 mi
12:54 PM66 °FPassing clouds.6 mph65%30.17 "Hg10 mi
11:54 AM62 °FScattered clouds.5 mph73%30.19 "Hg10 mi
10:54 AM57 °FLow clouds.8 mph83%30.21 "Hg7 mi
9:54 AM54 °FFog.8 mph90%30.20 "Hg4 mi
8:54 AM51 °FFog.8 mph92%30.19 "Hg2 mi
7:54 AM52 °FSunny.9 mph86%30.15 "Hg8 mi
6:54 AM49 °FFog.5 mph86%30.12 "Hg5 mi
5:54 AM48 °FClear.No wind89%30.09 "Hg10 mi
4:54 AM49 °FFog.No wind86%30.08 "Hg10 mi
3:54 AM49 °FClear.No wind90%30.08 "Hg10 mi
2:54 AM48 °FClear.No wind89%30.08 "Hg10 mi
1:54 AM50 °FClear.No wind89%30.08 "Hg10 mi
12:54 AM51 °FClear.No wind89%30.06 "Hg10 mi
11:54 PM
Sep 17
52 °FFog.No wind89%30.06 "Hg10 mi
Weather by CustomWeather, © 2014

See weather overviewHow to use our weather pages